EW3697 Weather Reports


time (UTC)temp
C
wind
direction
speed
KPH
gust
KPH
rain 1hr
cm
rain 24hr
cm
rain mn
cm
humidity
%
barometer
mb
20260505223100 26 284 6.4 30.6 0.00 0.00 0.00 21 1014.4
20260505221559 26 308 9.7 24.1 0.00 0.00 0.00 21 1014.5
20260505220057 26 311 12.9 29.0 0.00 0.00 0.00 20 1014.4
20260505214606 26 308 9.7 30.6 0.00 0.00 0.00 20 1014.5
20260505213059 25 265 1.6 14.5 0.00 0.00 0.00 23 1014.6
20260505211557 25 319 3.2 20.9 0.00 0.00 0.00 24 1014.6
20260505210053 24 318 11.3 25.7 0.00 0.00 0.00 25 1014.7
20260505204547 23 338 1.6 17.7 0.00 0.00 0.00 28 1014.8
20260505203050 23 245 4.8 16.1 0.00 0.00 0.00 27 1014.8
20260505201553 23 281 4.8 16.1 0.00 0.00 0.00 29 1015.0
20260505200045 24 318 4.8 19.3 0.00 0.00 0.00 27 1015.1
20260505194545 23 283 4.8 20.9 0.00 0.00 0.00 29 1015.2
20260505193048 23 314 3.2 12.9 0.00 0.00 0.00 29 1015.3
20260505191549 22 326 6.4 14.5 0.00 0.00 0.00 31 1015.4
20260505190044 22 314 1.6 16.1 0.00 0.00 0.00 33 1015.4
20260505184537 21 342 4.8 20.9 0.00 0.00 0.00 34 1015.5
20260505183047 20 275 3.2 16.1 0.00 0.00 0.00 37 1015.5
20260505181532 20 314 4.8 11.3 0.00 0.00 0.00 38 1015.5
20260505180036 19 273 1.6 9.7 0.00 0.00 0.00 41 1015.5
20260505174536 19 271 1.6 9.7 0.00 0.00 0.00 40 1015.5
20260505173036 18 327 3.2 12.9 0.00 0.00 0.00 41 1015.6
20260505171530 18 309 0.0 11.3 0.00 0.00 0.00 41 1015.5
20260505170023 17 283 0.0 8.0 0.00 0.00 0.00 43 1015.5
20260505164532 17 297 0.0 9.7 0.00 0.00 0.00 46 1015.5
20260505163022 16 259 4.8 11.3 0.00 0.00 0.00 47 1015.5
20260505161516 15 304 1.6 12.9 0.00 0.00 0.00 48 1015.5
20260505153007 13 338 0.0 6.4 0.00 0.00 0.00 56 1015.6
20260505151505 13 338 0.0 0.0 0.00 0.00 0.00 58 1015.5
20260505150116 11 338 0.0 0.0 0.00 0.00 0.00 58 1015.5
20260505140104 6 338 0.0 6.4 0.00 0.00 0.00 66 1014.9
20260505124543 3 338 0.0 0.0 0.00 0.00 0.00 71 1014.3
20260505123104 3 338 0.0 6.4 0.00 0.00 0.00 71 1014.2
20260505121541 3 337 1.6 6.4 0.00 0.00 0.00 71 1014.2
20260505120047 4 329 0.0 0.0 0.00 0.00 0.00 69 1014.1
20260505114546 4 329 0.0 0.0 0.00 0.00 0.00 68 1014.0
20260505113033 4 329 1.6 6.4 0.00 0.00 0.00 69 1014.1
20260505111531 5 328 0.0 0.0 0.00 0.00 0.00 67 1014.1
20260505101524 5 328 0.0 4.8 0.00 0.00 0.00 59 1013.7
20260505100030 5 328 0.0 0.0 0.00 0.00 0.00 57 1013.6
20260505094519 5 328 0.0 0.0 0.00 0.00 0.00 55 1013.6
20260505093017 6 328 0.0 0.0 0.00 0.00 0.00 54 1013.7
20260505091522 6 328 0.0 0.0 0.00 0.00 0.00 53 1013.7
20260505090012 6 328 0.0 0.0 0.00 0.00 0.00 53 1013.6
20260505084514 6 328 0.0 0.0 0.00 0.00 0.00 50 1013.6
20260505083010 7 328 0.0 0.0 0.00 0.00 0.00 48 1013.7
20260505081504 8 328 0.0 0.0 0.00 0.00 0.00 46 1013.6
20260505080101 9 328 0.0 0.0 0.00 0.00 0.00 44 1013.6
20260505074556 10 328 0.0 3.2 0.00 0.00 0.00 42 1013.7
20260505073059 10 328 0.0 0.0 0.00 0.00 0.00 42 1013.6
20260505071550 11 328 0.0 0.0 0.00 0.00 0.00 40 1013.5
20260505070053 11 328 0.0 0.0 0.00 0.00 0.00 38 1013.4
20260505064545 12 328 0.0 0.0 0.00 0.00 0.00 35 1013.3
20260505063046 13 328 0.0 6.4 0.00 0.00 0.00 34 1013.2
20260505061545 14 328 0.0 4.8 0.00 0.00 0.00 32 1013.2
20260505060045 15 328 1.6 11.3 0.00 0.00 0.00 31 1013.2
20260505054544 15 328 1.6 11.3 0.00 0.00 0.00 30 1013.2
20260505053043 15 330 3.2 14.5 0.00 0.00 0.00 30 1013.2
20260505051543 15 349 3.2 14.5 0.00 0.00 0.00 30 1013.1
20260505050119 15 330 6.4 19.3 0.00 0.00 0.00 31 1013.1
20260505041552 17 327 1.6 9.7 0.00 0.00 0.00 28 1012.7
20260505040052 17 323 4.8 24.1 0.00 0.00 0.00 26 1012.3
20260505034541 18 292 12.9 30.6 0.00 0.00 0.00 25 1012.0
20260505033045 18 314 6.4 22.5 0.00 0.00 0.00 24 1011.8
20260505031545 19 312 6.4 27.4 0.00 0.00 0.00 23 1011.5
20260505030041 20 321 12.9 25.7 0.00 0.00 0.00 22 1011.2
20260505024537 20 334 6.4 35.4 0.00 0.00 0.00 22 1011.0
20260505023043 21 314 11.3 35.4 0.00 0.00 0.00 22 1010.9
20260505021541 22 287 11.3 45.1 0.00 0.00 0.00 22 1010.8
20260505020037 22 322 6.4 30.6 0.00 0.00 0.00 21 1010.5
20260505014547 23 318 4.8 27.4 0.00 0.00 0.00 19 1010.6
20260505013034 24 330 9.7 24.1 0.00 0.00 0.00 19 1010.7
20260505011533 24 324 6.4 17.7 0.00 0.00 0.00 19 1010.8
20260505010031 23 319 9.7 22.5 0.00 0.00 0.00 21 1010.8
20260505004536 23 326 4.8 22.5 0.00 0.00 0.00 21 1011.0
20260505003030 25 306 16.1 30.6 0.00 0.00 0.00 19 1010.9
20260505001528 25 295 6.4 20.9 0.00 0.00 0.00 18 1010.9
20260505000033 26 311 14.5 25.7 0.00 0.00 0.00 17 1010.9
20260504234525 26 317 3.2 24.1 0.00 0.00 0.00 17 1011.0
20260504233025 26 320 16.1 32.2 0.00 0.00 0.00 15 1011.2
20260504231525 26 347 4.8 27.4 0.00 0.00 0.00 14 1011.1
20260504230023 26 330 11.3 29.0 0.00 0.00 0.00 15 1011.4
20260504224520 26 316 11.3 37.0 0.00 0.00 0.00 15 1011.4